Kezdőlap
METAR-TAF:

METAR-TAF

Repülőterek :

Crystal Airport

Minneapolis-Crystal, Minnesota, Amerikai Egyesült Államok

földrajzi szélesség: 45-03-45N, földrajzi hosszúság: 093-21-03W, magasság: 264 m

Jelenlegi meteorológiai megfigyelések

A jelentés 1 órával és 1 perccel ezelõtt készült, 10:53 UTC
Szélcsend
Hőmérséklet 7°C
Páratartalom 81%
Légköri nyomás 1017 hPa
Látótávolság: 16.1 km
Derült ég

METAR: KMIC 171053Z AUTO 00000KT 10SM CLR 07/04 A3003 RMK AO2 SLP171 T00720044 $

Idő: 06:54 (11:54 UTC)


TAF: hiányzik

Meteorológiai megfigyelések és előrejelzések több, mint 4000 repülőtéren (METAR és TAF jelentéseket).

A térképen piros és sárga pontok jelzik az elérhető meteorológiai állomásokat.

Mozgassa az egeret a pont fölött, hogy megjelenjen az állomás neve.

Azután kattintson az időjárási megfigyelések és előrejelzések megtekintéséhez.

A térkép megváltoztatása: kattintson a fekete keresztel jelölt zöld gombra ráközelítéshez, a vonallal jelölt zöld gombra távolításhoz, vagy a zöld nyilakra a szomszédos térképek eléréséhez.


METAR-TAF: